Location: Sweetwater (historical)
(38.4624°N, 119.1749°W)
Time: 12:54:03
(UTC+00:00)

Landsat 5 - Pass Details

Date: 13 August 2020
Orbit: 529 x 653 km, 98.2° (Epoch: 20 September)

Event Time Altitude Azimuth Distance (km) Brightness Sun altitude
Exits shadow 12:10:30 - 188° (S) 2,367 6.2 -11.4°
Reaches altitude 10° 12:11:54 10° 195° (SSW) 1,817 5.6 -11.2°
Maximum altitude 12:15:31 35° 262° (W) 911 3.9 -10.6°
Drops below altitude 10° 12:19:17 10° 329° (NNW) 1,892 6.0 -9.9°
Sets 12:21:38 0° 338° (NNW) 2,818 7.0 -9.5°
